Location: Newark
(32.9900°N, 111.5400°W)
Time: 09:44:43
(UTC+00:00)

Envisat - Visible Passes

Search period start: 14 November 2019 00:00
Search period end: 24 November 2019 00:00
Orbit: 764 x 766 km, 98.1° (Epoch: 13 November)

Date Brightness Start Highest point End Pass type
(mag) Time Alt. Az. Time Alt. Az. Time Alt. Az.
14 Nov 3.9 01:57:38 10° S 02:02:33 51° W 02:07:29 10° NNW visible
15 Nov 2.9 01:20:48 10° SSE 01:25:48 66° ENE 01:30:51 10° N visible
15 Nov 6.2 03:04:01 10° WSW 03:05:11 11° W 03:06:22 10° WNW visible
16 Nov 3.9 00:45:00 10° SE 00:49:14 28° ENE 00:53:29 10° NNE visible
16 Nov 5.1 02:23:52 10° SSW 02:28:08 27° W 02:32:26 10° NW visible
16 Nov 6.3 12:59:41 10° ENE 13:01:59 13° E 13:04:17 10° ESE visible
17 Nov 3.3 01:46:14 10° S 01:51:16 67° W 01:56:20 10° NNW visible
18 Nov 3.1 01:09:41 10° SSE 01:14:34 50° ENE 01:19:29 10° N visible
18 Nov 5.9 02:51:05 10° SW 02:53:48 15° W 02:56:33 10° WNW visible
18 Nov 5.7 13:23:33 10° NE 13:27:41 25° E 13:31:47 10° SSE visible
19 Nov 4.6 02:12:12 10° SSW 02:16:49 35° W 02:21:27 10° NNW visible
20 Nov 3.0 01:34:56 10° SSE 01:40:00 87° WSW 01:45:06 10° NNW visible
21 Nov 3.4 00:58:41 10° SE 01:03:22 39° ENE 01:08:03 10° N visible
21 Nov 5.6 02:38:54 10° SW 02:42:27 19° W 02:46:01 10° NW visible
21 Nov 5.9 13:12:46 10° NE 13:16:20 19° E 13:19:53 10° SE visible
22 Nov 4.1 02:00:40 10° S 02:05:30 46° W 02:10:23 10° NNW visible
23 Nov 2.9 01:23:42 10° SSE 01:28:44 73° ENE 01:33:49 10° N visible
23 Nov 4.9 13:37:20 10° NNE 13:41:58 35° E 13:46:35 10° SSE visible
